STARLINK-34611, 64918

Orbit data source: Space-Track

STARLINK-34611, 64918 is a payload satellite owned by SpaceX/Seattle (US) in LEO that was launched on Sat, 26 Jul 2025 UTC via an FALCON 9 launch vehicle from the Air Force Eastern Test Range (AFETR). Payload-class satellites include a variety of spacecraft equipped with specific instruments for various scientific and technological missions. These include communications satellites like Starlink; space stations such as the ISS; scientific satellites like the Hubble; Earth observation satellites from companies like Planet Labs, Umbra, and HawkEye 360; GPS; miniature CubeSats for education and research; and military/defense satellites.

Loading next visibility...
Identifier
64918, 2025-157Q
Orbit
LEO
Country
Flag of USUS
Related business
Manufacturer
SpaceX/Seattle
Mission
Operational Commercial Communications
Bus & Motor
STARLINK V2MO, Unknown motor
Mass
575 kg wet, ~530 kg dry
Launch date (UTC)
2025-07-26 (10 months ago)
Launch vehicle
FALCON 9
Launch site
Air Force Eastern Test Range (AFETR)
Object type
Payload
Rocket body
Debris
Shape & HBR
Box + 2 Pan, 17.7 m
Radar Cross Section
36.964 m², Large (>1 m²)

Expand to show TLE details & history
Last TLE update: 8 hours ago

TLE from 8 hours ago
0 STARLINK-34611
1 64918U 25157Q   26145.57401132  .00021209  00000-0  65404-3 0  9995
2 64918  53.1596 348.6524 0001048  77.2194 282.8925 15.33565176 47890
Epoch: 2026-05-25T13:46Z
TLE epoch observation values (Epoch: 2026-05-25T13:46:34.578Z)
Latitude
-0.00002°
Longitude
-101.15154°
Altitude
465.927 km
Speed
7.635 km/s
True Right ascension
23h 14m 36s
True Declination
0° 00' 00"
Sunlit
Object was in daylight at epoch
Visualization orbit readout
Latitude
Unknown
Longitude
Unknown
Altitude
Unknown
Speed
Unknown
Apparent Right ascension
Unknown
Apparent Declination
Unknown
Sunlit
N/A
Visualization observer readout
Local Sidereal Time
07:04:58
Azimuth
Unknown
Elevation
Unknown
Doppler factor
Unknown
Orbital elements
Apogee altitude
466.16 km
Perigee altitude
464.725 km
Semi-major axis
6,843.579 km
Eccentricity
0.0001
Inclination
53.1596°
RAAN
348.6524°
Arg. of periapsis
77.2194°
True anomaly
282.88079°
Mean anomaly
282.8925°
Eccentric anomaly
282.88665°
Mean motion
3.8337 °/min
Orbital period
93.9 mins
BSTAR
0.00065404
Loading maneuver chart data...
Computing Atmospheric mass density...
Loading historical data...
Loading historical data...
Loading historical data...
Loading historical data...
Loading historical data...
Loading historical data...
Loading historical data...

Documentation

Showing up to 5 results
|